FW6551 Weather Reports


time (UTC)temp
C
wind
direction
speed
KPH
gust
KPH
rain 1hr
cm
rain 24hr
cm
rain mn
cm
humidity
%
barometer
mb
20260906173011 27 204 3.2 4.8 0.00 0.00 0.00 59 1019.5
20260906172505 27 213 3.2 4.8 0.00 0.00 0.00 60 1019.9
20260906172000 27 285 1.6 8.0 0.00 0.00 0.00 58 1019.9
20260906171455 27 321 3.2 6.4 0.00 0.00 0.00 57 1020.0
20260906170950 27 99 0.0 4.8 0.00 0.00 0.00 58 1019.8
20260906170446 26 245 3.2 6.4 0.00 0.00 0.00 57 1020.0
20260906165943 27 157 0.0 6.4 0.00 0.00 0.00 58 1020.2
20260906165442 27 30 1.6 8.0 0.00 0.00 0.00 60 1020.2
20260906164938 26 128 0.0 3.2 0.00 0.00 0.00 61 1020.1
20260906164436 26 269 0.0 9.7 0.00 0.00 0.00 63 1020.0
20260906163933 26 155 1.6 4.8 0.00 0.00 0.00 64 1020.1
20260906163428 26 88 0.0 4.8 0.00 0.00 0.00 67 1020.4
20260906162927 26 217 3.2 6.4 0.00 0.00 0.00 67 1020.2
20260906162425 25 215 3.2 6.4 0.00 0.00 0.00 70 1020.5
20260906161921 25 187 0.0 4.8 0.00 0.00 0.00 70 1020.4
20260906161420 25 349 0.0 4.8 0.00 0.00 0.00 71 1020.2
20260906160919 25 342 0.0 4.8 0.00 0.00 0.00 73 1020.2
20260906160413 25 219 4.8 4.8 0.00 0.00 0.00 72 1020.6
20260906155911 25 324 4.8 6.4 0.00 0.00 0.00 72 1020.4
20260906155405 25 354 0.0 4.8 0.00 0.00 0.00 74 1020.5
20260906154901 25 136 3.2 4.8 0.00 0.00 0.00 77 1020.5
20260906154355 24 309 0.0 4.8 0.00 0.00 0.00 79 1020.5
20260906153854 24 121 3.2 8.0 0.00 0.00 0.00 77 1020.4
20260906153353 24 343 0.0 8.0 0.00 0.00 0.00 80 1020.2
20260906152849 23 345 1.6 4.8 0.00 0.00 0.00 79 1020.4
20260906152349 23 177 3.2 8.0 0.00 0.00 0.00 81 1020.5
20260906151848 23 357 0.0 11.3 0.00 0.00 0.00 81 1020.3
20260906151344 23 351 0.0 6.4 0.00 0.00 0.00 81 1020.5
20260906150840 24 195 1.6 4.8 0.00 0.00 0.00 82 1020.4
20260906150335 23 202 0.0 4.8 0.00 0.00 0.00 84 1020.4
20260906145834 23 112 0.0 4.8 0.00 0.00 0.00 84 1020.3
20260906145333 23 109 0.0 3.2 0.00 0.00 0.00 84 1020.4
20260906144828 23 265 1.6 4.8 0.00 0.00 0.00 85 1020.5
20260906144323 22 179 0.0 3.2 0.00 0.00 0.00 85 1020.4
20260906143822 22 164 3.2 4.8 0.00 0.00 0.00 87 1020.4
20260906143319 22 208 0.0 4.8 0.00 0.00 0.00 89 1020.3
20260906142814 21 131 1.6 6.4 0.00 0.00 0.00 90 1020.4
20260906142309 21 355 0.0 3.2 0.00 0.00 0.00 92 1020.1
20260906141809 21 248 0.0 4.8 0.00 0.00 0.00 93 1019.9
20260906141304 20 195 0.0 3.2 0.00 0.00 0.00 98 1020.1
20260906140802 19 317 3.2 4.8 0.00 0.00 0.00 99 1020.1
20260906140257 19 217 0.0 3.2 0.00 0.00 0.00 99 1020.4
20260906135755 19 278 1.6 3.2 0.00 0.00 0.00 99 1020.2
20260906135250 18 141 0.0 3.2 0.00 0.00 0.00 99 1020.3
20260906134746 18 309 3.2 4.8 0.00 0.00 0.00 99 1020.5
20260906134241 18 271 1.6 4.8 0.00 0.00 0.00 99 1020.5
20260906133736 18 310 0.0 3.2 0.00 0.00 0.00 99 1020.3
20260906133231 18 104 3.2 6.4 0.00 0.00 0.00 99 1020.2
20260906132727 18 255 0.0 1.6 0.00 0.00 0.00 99 1020.2
20260906132222 18 201 1.6 3.2 0.00 0.00 0.00 99 1020.1
20260906131717 18 269 0.0 3.2 0.00 0.00 0.00 99 1019.7
20260906131207 18 326 0.0 1.6 0.00 0.00 0.00 99 1019.9
20260906130702 18 307 1.6 1.6 0.00 0.00 0.00 99 1019.6
20260906130157 17 275 0.0 3.2 0.00 0.00 0.00 99 1019.8
20260906125655 17 212 0.0 1.6 0.00 0.00 0.00 99 1019.6
20260906125154 17 209 0.0 1.6 0.00 0.00 0.00 99 1019.6
20260906124649 17 164 0.0 1.6 0.00 0.00 0.00 99 1019.8
20260906124144 17 322 0.0 1.6 0.00 0.00 0.00 99 1019.5
20260906123643 17 212 0.0 1.6 0.00 0.00 0.00 99 1019.5
20260906123139 17 333 0.0 3.2 0.00 0.00 0.00 99 1019.6
20260906122638 17 312 0.0 1.6 0.00 0.00 0.00 99 1019.4
20260906122133 17 242 0.0 1.6 0.00 0.00 0.00 99 1019.5
20260906121630 17 205 0.0 1.6 0.00 0.00 0.00 99 1019.4
20260906121126 17 221 0.0 1.6 0.00 0.00 0.00 99 1019.6
20260906120621 16 235 0.0 3.2 0.00 0.00 0.00 99 1019.5
20260906120119 16 128 0.0 1.6 0.00 0.00 0.00 99 1019.6
20260906115618 16 322 0.0 0.0 0.00 0.00 0.00 99 1019.5
20260906115114 16 297 0.0 1.6 0.00 0.00 0.00 99 1019.4
20260906114608 16 297 1.6 1.6 0.00 0.00 0.00 99 1019.4
20260906114103 16 207 0.0 3.2 0.00 0.00 0.00 99 1019.4
20260906113603 16 235 1.6 3.2 0.00 0.00 0.00 99 1019.4
20260906113057 16 164 0.0 0.0 0.00 0.00 0.00 99 1019.3
20260906112552 16 164 0.0 0.0 0.00 0.00 0.00 99 1019.1
20260906112048 16 164 0.0 1.6 0.00 0.00 0.00 99 1019.1
20260906111548 16 230 0.0 0.0 0.00 0.00 0.00 99 1019.1
20260906111043 16 230 0.0 0.0 0.00 0.00 0.00 99 1019.3
20260906110543 16 142 0.0 1.6 0.00 0.00 0.00 99 1019.1
20260906110042 16 142 0.0 0.0 0.00 0.00 0.00 99 1019.3
20260906105537 16 124 0.0 1.6 0.00 0.00 0.00 99 1019.3
20260906105033 16 333 0.0 1.6 0.00 0.00 0.00 99 1019.3
20260906104532 16 230 0.0 1.6 0.00 0.00 0.00 99 1019.2
20260906104026 16 309 0.0 3.2 0.00 0.00 0.00 99 1019.2
20260906103525 16 246 0.0 1.6 0.00 0.00 0.00 99 1019.1
20260906103020 16 225 0.0 1.6 0.00 0.00 0.00 99 1018.9
20260906102520 16 202 0.0 1.6 0.00 0.00 0.00 99 1018.9
20260906102015 16 197 0.0 3.2 0.00 0.00 0.00 99 1018.6
20260906101509 16 333 0.0 1.6 0.00 0.00 0.00 99 1018.7
20260906101004 16 130 0.0 1.6 0.00 0.00 0.00 99 1018.7
20260906100500 16 297 0.0 1.6 0.00 0.00 0.00 99 1018.6
20260906095954 16 38 0.0 1.6 0.00 0.00 0.00 99 1018.8
20260906095449 16 150 0.0 1.6 0.00 0.00 0.00 99 1018.7
20260906094944 16 154 0.0 1.6 0.00 0.00 0.00 99 1018.6
20260906094438 16 242 0.0 1.6 0.00 0.00 0.00 99 1018.6
20260906093934 16 212 0.0 1.6 0.00 0.00 0.00 99 1018.5
20260906093430 16 218 0.0 3.2 0.00 0.00 0.00 99 1018.5
20260906092930 17 202 0.0 1.6 0.00 0.00 0.00 99 1018.6
20260906092430 17 242 0.0 0.0 0.00 0.00 0.00 99 1018.6
20260906091925 17 230 0.0 1.6 0.00 0.00 0.00 99 1018.4
20260906091421 17 209 0.0 0.0 0.00 0.00 0.00 99 1018.3
20260906090917 17 210 0.0 1.6 0.00 0.00 0.00 99 1018.2
20260906090412 17 303 0.0 1.6 0.00 0.00 0.00 99 1018.1
20260906085907 17 322 0.0 1.6 0.00 0.00 0.00 99 1018.4
20260906085406 17 322 0.0 3.2 0.00 0.00 0.00 99 1018.1
20260906084905 17 205 0.0 0.0 0.00 0.00 0.00 99 1017.9
20260906084400 17 284 0.0 1.6 0.00 0.00 0.00 99 1018.2
20260906083854 17 246 0.0 0.0 0.00 0.00 0.00 99 1018.3
20260906083350 17 246 0.0 0.0 0.00 0.00 0.00 99 1018.3
20260906082849 17 229 0.0 1.6 0.00 0.00 0.00 99 1018.1
20260906082344 17 244 0.0 3.2 0.00 0.00 0.00 99 1018.6
20260906081841 17 217 0.0 0.0 0.00 0.00 0.00 99 1018.2
20260906081336 17 117 0.0 0.0 0.00 0.00 0.00 99 1018.2
20260906080832 17 117 0.0 1.6 0.00 0.00 0.00 99 1018.3
20260906080328 17 218 0.0 0.0 0.00 0.00 0.00 99 1018.5
20260906075822 17 218 0.0 0.0 0.00 0.00 0.00 99 1018.5
20260906075322 17 218 0.0 0.0 0.00 0.00 0.00 99 1018.4
20260906074817 17 218 0.0 0.0 0.00 0.00 0.00 99 1018.5
20260906074317 18 218 0.0 0.0 0.00 0.00 0.00 99 1018.5
20260906073816 18 218 0.0 0.0 0.00 0.00 0.00 99 1018.5
20260906073311 17 218 0.0 1.6 0.00 0.00 0.00 99 1018.4
20260906072807 17 242 0.0 0.0 0.00 0.00 0.00 99 1018.3
20260906072305 17 242 0.0 0.0 0.00 0.00 0.00 99 1018.7
20260906071758 17 242 0.0 0.0 0.00 0.00 0.00 99 1018.6
20260906071258 17 242 0.0 0.0 0.00 0.00 0.00 99 1018.5
20260906070755 17 230 0.0 1.6 0.00 0.00 0.00 99 1018.8
20260906070250 18 173 0.0 3.2 0.00 0.00 0.00 99 1018.8
20260906065750 17 224 0.0 0.0 0.00 0.00 0.00 99 1019.0
20260906065245 17 195 0.0 1.6 0.00 0.00 0.00 99 1019.0
20260906064741 17 333 0.0 0.0 0.00 0.00 0.00 99 1018.9
20260906064236 18 217 0.0 0.0 0.00 0.00 0.00 99 1018.9
20260906063731 18 129 0.0 0.0 0.00 0.00 0.00 99 1018.8
20260906063227 17 129 0.0 0.0 0.00 0.00 0.00 99 1018.7
20260906062722 18 129 0.0 0.0 0.00 0.00 0.00 99 1018.8
20260906062221 18 129 0.0 0.0 0.00 0.00 0.00 99 1018.9
20260906061717 18 129 0.0 0.0 0.00 0.00 0.00 99 1018.8
20260906061213 18 230 0.0 0.0 0.00 0.00 0.00 99 1019.0
20260906060709 18 230 0.0 1.6 0.00 0.00 0.00 99 1019.0
20260906060206 18 142 0.0 0.0 0.00 0.00 0.00 99 1018.9
20260906055701 18 205 0.0 0.0 0.00 0.00 0.00 99 1018.9
20260906055156 18 205 0.0 0.0 0.00 0.00 0.00 99 1018.9
20260906054652 18 205 0.0 0.0 0.00 0.00 0.00 99 1018.7
20260906054146 18 205 0.0 0.0 0.00 0.00 0.00 99 1018.9
20260906053643 18 205 0.0 0.0 0.00 0.00 0.00 99 1018.8
20260906053138 18 217 0.0 1.6 0.00 0.00 0.00 99 1018.9
20260906052633 18 195 0.0 0.0 0.00 0.00 0.00 99 1019.0
20260906052130 18 195 0.0 0.0 0.00 0.00 0.00 99 1018.7
20260906051626 18 195 0.0 0.0 0.00 0.00 0.00 99 1018.8
20260906051126 18 195 0.0 0.0 0.00 0.00 0.00 99 1018.8
20260906050621 18 195 0.0 0.0 0.00 0.00 0.00 99 1018.5
20260906050116 18 117 0.0 0.0 0.00 0.00 0.00 99 1018.6
20260906045614 18 117 0.0 0.0 0.00 0.00 0.00 99 1018.6
20260906045110 18 166 0.0 1.6 0.00 0.00 0.00 99 1018.5
20260906044606 18 217 0.0 0.0 0.00 0.00 0.00 99 1018.7
20260906044101 18 217 0.0 0.0 0.00 0.00 0.00 99 1018.4
20260906043557 18 202 0.0 1.6 0.00 0.00 0.00 99 1018.5
20260906043053 18 195 0.0 0.0 0.00 0.00 0.00 99 1018.5
20260906042551 18 195 0.0 1.6 0.00 0.00 0.00 99 1018.4
20260906042046 18 205 0.0 1.6 0.00 0.00 0.00 99 1018.4
20260906041543 18 217 0.0 1.6 0.00 0.00 0.00 99 1018.2
20260906041037 18 235 0.0 0.0 0.00 0.00 0.00 99 1018.4
20260906040532 18 231 0.0 1.6 0.00 0.00 0.00 99 1018.4
20260906040028 18 235 0.0 0.0 0.00 0.00 0.00 99 1018.3
20260906035523 18 235 0.0 0.0 0.00 0.00 0.00 99 1018.3
20260906035019 18 205 0.0 1.6 0.00 0.00 0.00 99 1018.1
20260906034518 18 154 0.0 0.0 0.00 0.00 0.00 99 1018.2
20260906034014 18 195 0.0 1.6 0.00 0.00 0.00 99 1018.3
20260906033508 18 129 0.0 1.6 0.00 0.00 0.00 99 1018.4
20260906033004 18 205 0.0 1.6 0.00 0.00 0.00 99 1018.5
20260906032500 18 235 0.0 0.0 0.00 0.00 0.00 99 1018.1
20260906031954 18 235 0.0 0.0 0.00 0.00 0.00 99 1018.2
20260906031450 18 212 0.0 1.6 0.00 0.00 0.00 99 1018.3
20260906030945 18 205 0.0 3.2 0.00 0.00 0.00 99 1018.1
20260906030440 18 217 0.0 0.0 0.00 0.00 0.00 99 1018.2
20260906025934 18 198 1.6 1.6 0.00 0.00 0.00 99 1018.2
20260906025428 18 255 0.0 1.6 0.00 0.00 0.00 99 1017.8
20260906024927 18 224 0.0 0.0 0.00 0.00 0.00 99 1017.7
20260906024427 18 224 0.0 0.0 0.00 0.00 0.00 99 1017.5
20260906023922 18 224 0.0 0.0 0.00 0.00 0.00 99 1017.5
20260906023418 19 224 0.0 1.6 0.00 0.00 0.00 99 1017.7
20260906022918 19 230 0.0 1.6 0.00 0.00 0.00 99 1017.5
20260906022413 19 205 0.0 0.0 0.00 0.00 0.00 99 1017.2
20260906021909 19 205 0.0 0.0 0.00 0.00 0.00 99 1017.3
20260906021408 19 205 0.0 0.0 0.00 0.00 0.00 99 1017.2
20260906020903 20 205 0.0 0.0 0.00 0.00 0.00 99 1017.2
20260906020357 20 212 0.0 1.6 0.00 0.00 0.00 99 1017.2
20260906015851 20 242 0.0 0.0 0.00 0.00 0.00 99 1016.8
20260906015350 20 242 0.0 0.0 0.00 0.00 0.00 99 1016.6
20260906014845 20 222 0.0 1.6 0.00 0.00 0.00 99 1016.5
20260906014345 20 209 0.0 1.6 0.00 0.00 0.00 98 1016.4
20260906013841 20 230 0.0 1.6 0.00 0.00 0.00 98 1016.4
20260906013337 20 195 0.0 1.6 0.00 0.00 0.00 97 1016.1
20260906012832 21 205 0.0 1.6 0.00 0.00 0.00 97 1016.0
20260906012327 21 220 0.0 3.2 0.00 0.00 0.00 96 1016.2
20260906011826 21 189 0.0 1.6 0.00 0.00 0.00 96 1016.2
20260906011321 21 205 0.0 0.0 0.00 0.00 0.00 95 1016.1
20260906010818 21 205 0.0 0.0 0.00 0.00 0.00 94 1016.2
20260906010314 21 230 0.0 0.0 0.00 0.00 0.00 94 1016.1
20260906005809 22 230 0.0 1.6 0.00 0.00 0.00 94 1016.0
20260906005307 22 117 0.0 0.0 0.00 0.00 0.00 93 1015.9
20260906004806 22 117 0.0 0.0 0.00 0.00 0.00 91 1015.8
20260906004301 22 117 0.0 0.0 0.00 0.00 0.00 91 1016.0
20260906003756 22 141 0.0 0.0 0.00 0.00 0.00 90 1015.9
20260906003252 22 141 0.0 1.6 0.00 0.00 0.00 90 1015.9
20260906002747 23 322 0.0 0.0 0.00 0.00 0.00 89 1015.8
20260906002247 23 129 0.0 0.0 0.00 0.00 0.00 88 1015.8
20260906001742 23 212 0.0 0.0 0.00 0.00 0.00 87 1015.7
20260906001237 23 246 0.0 1.6 0.00 0.00 0.00 86 1015.8
20260906000733 23 230 0.0 0.0 0.00 0.00 0.00 86 1015.9
20260906000234 24 352 0.0 0.0 0.00 0.00 0.00 85 1015.7
20260905235732 24 131 0.0 3.2 0.00 0.00 0.00 85 1015.8
20260905235227 24 195 0.0 0.0 0.00 0.00 0.00 86 1015.9
20260905234723 24 195 0.0 1.6 0.00 0.00 0.00 85 1016.0
20260905234218 24 235 0.0 1.6 0.00 0.00 0.00 85 1015.8
20260905233713 25 319 1.6 1.6 0.00 0.00 0.00 84 1016.0
20260905233212 25 322 0.0 0.0 0.00 0.00 0.00 83 1015.9
20260905232707 25 309 0.0 1.6 0.00 0.00 0.00 82 1015.8
20260905232203 25 333 0.0 3.2 0.00 0.00 0.00 81 1015.9
20260905231659 26 106 0.0 8.0 0.00 0.00 0.00 80 1015.9
20260905231154 26 7 0.0 3.2 0.00 0.00 0.00 80 1016.0
20260905230650 26 108 1.6 8.0 0.00 0.00 0.00 78 1015.9
20260905230148 26 124 0.0 3.2 0.00 0.00 0.00 79 1015.7
20260905225647 26 212 0.0 3.2 0.00 0.00 0.00 77 1016.0
20260905225142 27 297 0.0 3.2 0.00 0.00 0.00 76 1016.1
20260905224641 27 321 0.0 3.2 0.00 0.00 0.00 73 1016.0
20260905224136 28 315 0.0 3.2 0.00 0.00 0.00 72 1015.9
20260905223633 28 322 0.0 3.2 0.00 0.00 0.00 72 1016.1
20260905223129 27 262 3.2 3.2 0.00 0.00 0.00 75 1015.9
20260905222624 27 167 0.0 3.2 0.00 0.00 0.00 74 1016.0
20260905222114 28 120 3.2 4.8 0.00 0.00 0.00 71 1016.0
20260905221610 29 279 1.6 3.2 0.00 0.00 0.00 72 1016.2
20260905221106 29 230 0.0 3.2 0.00 0.00 0.00 71 1016.3
20260905220601 28 244 0.0 3.2 0.00 0.00 0.00 77 1016.3
20260905220057 26 220 1.6 1.6 0.00 0.00 0.00 82 1016.0
20260905215556 26 297 0.0 1.6 0.00 0.00 0.00 80 1016.3
20260905215052 27 304 0.0 1.6 0.00 0.00 0.00 78 1016.2
20260905214548 28 266 0.0 1.6 0.00 0.00 0.00 73 1016.4
20260905214043 28 297 0.0 1.6 0.00 0.00 0.00 70 1016.2
20260905213538 29 284 0.0 3.2 0.00 0.00 0.00 70 1016.5
20260905213034 28 157 0.0 3.2 0.00 0.00 0.00 72 1016.6
20260905212534 28 236 0.0 4.8 0.00 0.00 0.00 72 1016.5
20260905212028 28 230 0.0 3.2 0.00 0.00 0.00 71 1016.6
20260905211523 27 190 1.6 3.2 0.00 0.00 0.00 73 1016.5
20260905211019 27 223 1.6 3.2 0.00 0.00 0.00 77 1016.6
20260905210515 26 277 1.6 4.8 0.00 0.00 0.00 80 1016.5
20260905210015 26 303 1.6 3.2 0.00 0.00 0.00 80 1016.6
20260905205514 27 304 1.6 6.4 0.00 0.00 0.00 78 1017.0
20260905205013 28 265 1.6 4.8 0.00 0.00 0.00 73 1016.7
20260905204508 27 142 0.0 4.8 0.00 0.00 0.00 75 1016.6
20260905204003 28 310 4.8 4.8 0.00 0.00 0.00 72 1016.8
20260905203458 27 351 0.0 4.8 0.00 0.00 0.00 74 1016.7
20260905202953 27 259 0.0 8.0 0.00 0.00 0.00 74 1016.7
20260905202448 28 307 3.2 3.2 0.00 0.00 0.00 74 1016.8
20260905201944 28 259 1.6 4.8 0.00 0.00 0.00 76 1016.8
20260905201439 28 302 3.2 4.8 0.00 0.00 0.00 76 1017.0
20260905200933 28 187 3.2 6.4 0.00 0.00 0.00 77 1017.0
20260905200429 26 230 0.0 4.8 0.00 0.00 0.00 79 1017.3
20260905195927 27 242 0.0 4.8 0.00 0.00 0.00 79 1017.3
20260905195422 27 246 0.0 4.8 0.00 0.00 0.00 77 1017.2
20260905194918 28 295 1.6 3.2 0.00 0.00 0.00 75 1017.1
20260905194417 28 319 3.2 4.8 0.00 0.00 0.00 72 1017.2
20260905193917 27 315 0.0 4.8 0.00 0.00 0.00 75 1017.2
20260905193412 26 212 3.2 4.8 0.00 0.00 0.00 78 1017.3
20260905192907 26 217 0.0 3.2 0.00 0.00 0.00 84 1017.1
20260905192403 26 269 0.0 1.6 0.00 0.00 0.00 84 1017.3
20260905191857 26 240 0.0 1.6 0.00 0.00 0.00 83 1017.1
20260905191356 26 195 1.6 3.2 0.00 0.00 0.00 79 1017.0
20260905190855 26 258 0.0 3.2 0.00 0.00 0.00 80 1017.1
20260905190348 26 220 1.6 3.2 0.00 0.00 0.00 79 1017.0
20260905185848 26 269 0.0 3.2 0.00 0.00 0.00 80 1016.8
20260905185343 26 248 3.2 4.8 0.00 0.00 0.00 79 1017.2
20260905184842 26 214 1.6 4.8 0.00 0.00 0.00 80 1017.1
20260905184341 25 209 0.0 3.2 0.00 0.00 0.00 82 1017.5
20260905183840 25 222 1.6 3.2 0.00 0.00 0.00 82 1017.4
20260905183336 26 242 0.0 1.6 0.00 0.00 0.00 81 1017.3
20260905182835 26 241 0.0 3.2 0.00 0.00 0.00 81 1017.2
20260905182329 26 322 0.0 1.6 0.00 0.00 0.00 79 1017.3
20260905181825 26 254 4.8 6.4 0.00 0.00 0.00 78 1017.4
20260905181325 26 304 0.0 4.8 0.00 0.00 0.00 80 1017.6
20260905180824 27 171 1.6 8.0 0.00 0.00 0.00 75 1017.4
20260905180319 27 250 3.2 4.8 0.00 0.00 0.00 76 1017.2
20260905175814 27 145 4.8 6.4 0.00 0.00 0.00 79 1017.4
20260905175308 26 124 0.0 4.8 0.00 0.00 0.00 84 1017.6
20260905174804 26 191 3.2 4.8 0.00 0.00 0.00 79 1017.5
20260905174300 26 246 0.0 3.2 0.00 0.00 0.00 83 1017.6
20260905173755 25 150 0.0 3.2 0.00 0.00 0.00 85 1017.6